����,���ϕ���(m/s),���ϕ���,�ő�u�ԕ���(m/s),�ő啗��������,�C��(��),���x(%),10���Ԉړ��ώZ�J��(mm),1���Ԉړ��ώZ�J��(mm),���J��(mm),�݌v�J��(mm)
2022-03-14T00:00:00+09:00,3.6,��쐼,5.8,�쐼,15.9,82.6,0,0,0,0
2022-03-14T00:01:00+09:00,3.5,��쐼,5.8,�쐼,15.8,82.9,0,0,0,0
2022-03-14T00:02:00+09:00,3.5,��쐼,5.8,�쐼,15.8,83.1,0,0,0,0
2022-03-14T00:03:00+09:00,3.5,��쐼,5.8,�쐼,15.8,83.4,0,0,0,0
2022-03-14T00:04:00+09:00,3.6,��쐼,5.8,�쐼,15.8,83.5,0,0,0,0
2022-03-14T00:05:00+09:00,3.4,��쐼,5.5,�쐼,15.8,83.4,0,0,0,0
2022-03-14T00:06:00+09:00,3.3,��쐼,5.5,�쐼,15.8,83.4,0,0,0,0
2022-03-14T00:07:00+09:00,3.3,��쐼,5.5,�쐼,15.8,83.5,0,0,0,0
2022-03-14T00:08:00+09:00,3.4,��쐼,5.8,�쐼,15.8,83.4,0,0,0,0
2022-03-14T00:09:00+09:00,3.5,��쐼,6.1,�쐼,15.8,83.5,0,0,0,0
2022-03-14T00:10:00+09:00,3.8,��쐼,6.9,��쐼,15.8,83.5,0,0,0,0
2022-03-14T00:11:00+09:00,3.8,��쐼,6.9,��쐼,15.9,83.1,0,0,0,0
2022-03-14T00:12:00+09:00,3.9,��쐼,6.9,��쐼,15.9,82.8,0,0,0,0
2022-03-14T00:13:00+09:00,3.8,��쐼,6.9,��쐼,15.9,82.8,0,0,0,0
2022-03-14T00:14:00+09:00,3.8,��쐼,6.9,��쐼,15.9,82.9,0,0,0,0
2022-03-14T00:15:00+09:00,4,��쐼,6.9,��쐼,15.9,83.2,0,0,0,0
2022-03-14T00:16:00+09:00,4.2,��쐼,6.9,��쐼,15.9,83.5,0,0,0,0
2022-03-14T00:17:00+09:00,4.4,��쐼,7.1,��쐼,15.9,83.7,0,0,0,0
2022-03-14T00:18:00+09:00,4.4,��쐼,7.1,��쐼,15.8,83.7,0,0,0,0
2022-03-14T00:19:00+09:00,4.4,�쐼,7.1,��쐼,15.8,83.8,0,0,0,0
2022-03-14T00:20:00+09:00,4.5,�쐼,8.2,�쐼,15.8,83.9,0,0,0,0
2022-03-14T00:21:00+09:00,4.4,�쐼,8.2,�쐼,15.9,83.6,0,0,0,0
2022-03-14T00:22:00+09:00,4.4,�쐼,8.2,�쐼,15.9,83.3,0,0,0,0
2022-03-14T00:23:00+09:00,4.6,�쐼,8.2,�쐼,15.9,83.6,0,0,0,0
2022-03-14T00:24:00+09:00,4.8,�쐼,8.2,�쐼,16,83.1,0,0,0,0
2022-03-14T00:25:00+09:00,5,�쐼,8.2,�쐼,15.9,83.1,0,0,0,0
2022-03-14T00:26:00+09:00,5,�쐼,8.2,�쐼,15.9,83.4,0,0,0,0
2022-03-14T00:27:00+09:00,5,�쐼,8.2,�쐼,15.9,83.3,0,0,0,0
2022-03-14T00:28:00+09:00,5.1,�쐼,8.2,�쐼,15.9,83.3,0,0,0,0
2022-03-14T00:29:00+09:00,5.3,�쐼,8.2,�쐼,15.9,83.7,0,0,0,0
2022-03-14T00:30:00+09:00,5.2,��쐼,8.1,�쐼,15.9,84,0,0,0,0
2022-03-14T00:31:00+09:00,5.5,��쐼,8.1,�쐼,15.8,84.3,0,0,0,0
2022-03-14T00:32:00+09:00,5.6,��쐼,8.1,�쐼,15.8,84.7,0,0,0,0
2022-03-14T00:33:00+09:00,5.6,��쐼,8.1,�쐼,15.8,85.1,0,0,0,0
2022-03-14T00:34:00+09:00,5.6,��쐼,8.1,�쐼,15.7,85.5,0,0,0,0
2022-03-14T00:35:00+09:00,5.5,��쐼,8.1,�쐼,15.6,85.8,0,0,0,0
2022-03-14T00:36:00+09:00,5.5,��쐼,8.1,�쐼,15.5,86.5,0,0,0,0
2022-03-14T00:37:00+09:00,5.2,��쐼,8.1,�쐼,15.5,87.1,0,0,0,0
2022-03-14T00:38:00+09:00,5,��쐼,8.1,�쐼,15.4,87.6,0,0,0,0
2022-03-14T00:39:00+09:00,4.8,��쐼,7.8,��쐼,15.4,88,0,0,0,0
2022-03-14T00:40:00+09:00,4.8,��쐼,7.8,��쐼,15.3,88.5,0,0,0,0
2022-03-14T00:41:00+09:00,4.7,��쐼,7.6,��쐼,15.3,88.8,0,0,0,0
2022-03-14T00:42:00+09:00,4.6,��쐼,7.6,��쐼,15.2,89.2,0,0,0,0
2022-03-14T00:43:00+09:00,4.6,��쐼,7,��쐼,15.2,89.5,0,0,0,0
2022-03-14T00:44:00+09:00,4.6,��쐼,7,��쐼,15.2,89.4,0,0,0,0
2022-03-14T00:45:00+09:00,4.5,��쐼,7,��쐼,15.2,89.4,0,0,0,0
2022-03-14T00:46:00+09:00,4.4,��쐼,7,��쐼,15.2,89.5,0,0,0,0
2022-03-14T00:47:00+09:00,4.3,��쐼,7,��쐼,15.2,89.7,0,0,0,0
2022-03-14T00:48:00+09:00,4.2,��쐼,7,��쐼,15.2,89.7,0,0,0,0
2022-03-14T00:49:00+09:00,3.9,��쐼,7,��쐼,15.1,90,0,0,0,0
2022-03-14T00:50:00+09:00,3.9,��쐼,7,��쐼,15.1,90.5,0,0,0,0
2022-03-14T00:51:00+09:00,3.7,��쐼,7,��쐼,15.1,91.1,0,0,0,0
2022-03-14T00:52:00+09:00,3.6,�쐼,7,��쐼,15.1,91,0,0,0,0
2022-03-14T00:53:00+09:00,3.4,�쐼,6.2,��쐼,15.2,91.1,0,0,0,0
2022-03-14T00:54:00+09:00,3.3,�쐼,6.2,��쐼,15.2,91,0,0,0,0
2022-03-14T00:55:00+09:00,3.1,�쐼,5.5,�쐼,15.2,90.8,0,0,0,0
2022-03-14T00:56:00+09:00,3.1,���쐼,5.5,�쐼,15.2,90.5,0,0,0,0
2022-03-14T00:57:00+09:00,3.1,���쐼,5.5,�쐼,15.3,90.4,0,0,0,0
2022-03-14T00:58:00+09:00,3.2,���쐼,5.5,�쐼,15.3,90.3,0,0,0,0
2022-03-14T00:59:00+09:00,3.4,��,5.6,���k��,15.3,90.2,0,0,0,0
2022-03-14T01:00:00+09:00,3.5,��,6.7,���k��,15.3,90.1,0,0,0,0
2022-03-14T01:01:00+09:00,3.8,��,8,���k��,15.3,90.3,0,0,0,0
2022-03-14T01:02:00+09:00,4.1,���k��,8.3,���k��,15.4,90,0,0,0,0
2022-03-14T01:03:00+09:00,4.5,���k��,12,��,15.4,89.5,0,0,0,0
2022-03-14T01:04:00+09:00,4.7,���k��,12,��,15.3,86.7,0,0,0,0
2022-03-14T01:05:00+09:00,4.8,���k��,12,��,15.2,81.9,0,0,0,0
2022-03-14T01:06:00+09:00,5.3,���k��,13.2,�k,15.1,80.4,0,0,0,0
2022-03-14T01:07:00+09:00,5.4,���k��,13.2,�k,14.8,81,0.5,0.5,0.5,0.5
2022-03-14T01:08:00+09:00,5.6,�k��,13.2,�k,14.4,82.3,1,1,1,1
2022-03-14T01:09:00+09:00,5.9,�k��,13.2,�k,14.1,83.3,2,2,2,2
2022-03-14T01:10:00+09:00,5.8,�k��,13.2,�k,13.9,84.6,2.5,2.5,2.5,2.5
2022-03-14T01:11:00+09:00,5.3,�k��,13.2,�k,13.7,85.8,3.5,3.5,3.5,3.5
2022-03-14T01:12:00+09:00,4.9,�k��,13.2,�k,13.5,86.6,4,4,4,4
2022-03-14T01:13:00+09:00,4.1,�k�k��,13.2,�k,13.4,87.3,4.5,4.5,4.5,4.5
2022-03-14T01:14:00+09:00,3.9,�k�k��,13.2,�k,13.3,87.7,5,5,5,5
2022-03-14T01:15:00+09:00,3.9,�k�k��,13.2,�k,13.2,87.9,5.5,5.5,5.5,5.5
2022-03-14T01:16:00+09:00,3.4,�k�k��,9.6,��,13.2,88.4,5.5,5.5,5.5,5.5
2022-03-14T01:17:00+09:00,3.4,�k�k��,9.6,��,13.1,88.8,5.5,6,6,6
2022-03-14T01:18:00+09:00,3.3,�k�k��,9.6,��,13.1,89.2,5,6,6,6
2022-03-14T01:19:00+09:00,2.9,�k�k��,6.7,�k�k��,13.1,89.2,4,6,6,6
2022-03-14T01:20:00+09:00,3,�k,6.7,�k�k��,13.1,89.1,4,6.5,6.5,6.5
2022-03-14T01:21:00+09:00,3.2,�k,6.7,�k�k��,13.1,89.4,3,6.5,6.5,6.5
2022-03-14T01:22:00+09:00,3.3,�k,6.7,�k�k��,13.1,89.7,2.5,6.5,6.5,6.5
2022-03-14T01:23:00+09:00,3.5,�k,6.7,�k�k��,13.1,89.9,2.5,7,7,7
2022-03-14T01:24:00+09:00,3.6,�k,6.7,�k�k��,13.1,89.9,2,7,7,7
2022-03-14T01:25:00+09:00,3.6,�k,6.7,�k�k��,13.1,89.5,1.5,7,7,7
2022-03-14T01:26:00+09:00,3.6,�k,6.7,�k�k��,13.1,89.2,1.5,7,7,7
2022-03-14T01:27:00+09:00,3.5,�k,6.7,�k�k��,13.1,89.1,1.5,7.5,7.5,7.5
2022-03-14T01:28:00+09:00,3.3,�k�k��,6.3,�k��,13.1,89.1,1.5,7.5,7.5,7.5
2022-03-14T01:29:00+09:00,3.3,�k�k��,6.3,�k��,13.1,89.3,1.5,7.5,7.5,7.5
2022-03-14T01:30:00+09:00,3.3,�k�k��,6.3,�k��,13.1,89.4,1,7.5,7.5,7.5
2022-03-14T01:31:00+09:00,3.4,�k�k��,6.3,�k��,13.1,89.4,1,7.5,7.5,7.5
2022-03-14T01:32:00+09:00,3.3,�k�k��,6.3,�k��,13.1,89.4,1,7.5,7.5,7.5
2022-03-14T01:33:00+09:00,3.3,�k��,6.3,�k��,13.2,89,0.5,7.5,7.5,7.5
2022-03-14T01:34:00+09:00,3.3,�k��,6.3,�k��,13.2,88.7,0.5,7.5,7.5,7.5
2022-03-14T01:35:00+09:00,3.3,�k��,5.5,�k��,13.2,88.9,0.5,7.5,7.5,7.5
2022-03-14T01:36:00+09:00,3.4,�k��,5.5,�k��,13.1,89.3,0.5,7.5,7.5,7.5
2022-03-14T01:37:00+09:00,3.3,�k��,5.5,�k��,13.1,89.3,0.5,8,8,8
2022-03-14T01:38:00+09:00,3.1,�k��,5.5,�k��,13.2,89.3,0.5,8,8,8
2022-03-14T01:39:00+09:00,3,�k��,5.5,�k��,13.2,88.6,0.5,8,8,8
2022-03-14T01:40:00+09:00,2.9,�k�k��,5.5,�k��,13.2,88.1,0.5,8,8,8
2022-03-14T01:41:00+09:00,2.8,�k��,5.3,�k�k��,13.2,88.2,0.5,8,8,8
2022-03-14T01:42:00+09:00,2.7,�k��,5.3,�k�k��,13.2,88.6,0.5,8,8,8
2022-03-14T01:43:00+09:00,2.8,�k��,5.3,�k�k��,13.1,88.9,1,8.5,8.5,8.5
2022-03-14T01:44:00+09:00,2.6,�k��,5.3,�k�k��,13.2,88.5,1,8.5,8.5,8.5
2022-03-14T01:45:00+09:00,2.3,�k��,4.3,�k�k��,13.2,87.7,1,8.5,8.5,8.5
2022-03-14T01:46:00+09:00,2.1,�k��,4.1,���k��,13.2,87.3,1,8.5,8.5,8.5
2022-03-14T01:47:00+09:00,2,�k��,4.1,���k��,13.2,87.4,0.5,8.5,8.5,8.5
2022-03-14T01:48:00+09:00,2.1,���k��,4.1,���k��,13.1,87.9,0.5,8.5,8.5,8.5
2022-03-14T01:49:00+09:00,2.1,���k��,4.1,���k��,13.1,88.6,1,9,9,9
2022-03-14T01:50:00+09:00,2,���k��,4.1,���k��,13.1,88.9,1,9,9,9
2022-03-14T01:51:00+09:00,2.1,���k��,4.1,���k��,13.1,88.8,1,9,9,9
2022-03-14T01:52:00+09:00,2.1,���k��,4.1,���k��,13,89,1,9,9,9
2022-03-14T01:53:00+09:00,2.2,���k��,4,��,13,89.5,0.5,9,9,9
2022-03-14T01:54:00+09:00,2.3,���k��,4.2,���k��,12.9,90.2,0.5,9,9,9
2022-03-14T01:55:00+09:00,2.5,���k��,4.2,���k��,12.8,90.6,0.5,9,9,9
2022-03-14T01:56:00+09:00,2.7,���k��,4.2,���k��,12.7,91.3,0.5,9,9,9
2022-03-14T01:57:00+09:00,2.8,���k��,4.2,���k��,12.6,92,0.5,9,9,9
2022-03-14T01:58:00+09:00,2.9,���k��,4.2,���k��,12.6,92.7,0.5,9,9,9
2022-03-14T01:59:00+09:00,2.8,��,4.2,���k��,12.6,93.3,0,9,9,9
2022-03-14T02:00:00+09:00,2.7,��,4.2,���k��,12.5,93.7,0,9,9,9
2022-03-14T02:01:00+09:00,2.5,��,4.2,���k��,12.5,94,0,9,9,9
2022-03-14T02:02:00+09:00,2.3,��,4.2,���k��,12.5,94.5,0,9,9,9
2022-03-14T02:03:00+09:00,2,��,4.2,���k��,12.5,94.9,0,9,9,9
2022-03-14T02:04:00+09:00,1.7,��,4.2,��,12.5,95.3,0,9,9,9
2022-03-14T02:05:00+09:00,1.5,��,3.7,��,12.5,95.3,0,9,9,9
2022-03-14T02:06:00+09:00,1.3,��쓌,3.6,��,12.4,95.5,0,9,9,9
2022-03-14T02:07:00+09:00,1.1,��쐼,3.1,��,12.4,95.6,0,8.5,9,9
2022-03-14T02:08:00+09:00,1,��쐼,2.1,��쐼,12.4,95.8,0,8,9,9
2022-03-14T02:09:00+09:00,1,�쐼,2.1,��쐼,12.4,95.9,0,7,9,9
2022-03-14T02:10:00+09:00,1,�쐼,2.1,��쐼,12.4,96,0,6.5,9,9
2022-03-14T02:11:00+09:00,1.2,�쐼,2.1,��쐼,12.4,96.1,0,5.5,9,9
2022-03-14T02:12:00+09:00,1.3,��쐼,2.1,��쐼,12.4,96.1,0,5,9,9
2022-03-14T02:13:00+09:00,1.2,��쐼,2.1,��쐼,12.4,96,0,4.5,9,9
2022-03-14T02:14:00+09:00,1.2,��쐼,2.1,��쐼,12.4,96.1,0,4,9,9
2022-03-14T02:15:00+09:00,1.2,��쐼,2.1,��쐼,12.4,96.1,0,3.5,9,9
2022-03-14T02:16:00+09:00,1.2,��쐼,2.1,��쐼,12.5,96.1,0,3.5,9,9
2022-03-14T02:17:00+09:00,1.1,��쐼,2.1,��쐼,12.5,96,0,3,9,9
2022-03-14T02:18:00+09:00,1.1,��쐼,1.9,��쐼,12.5,95.8,0,3,9,9
2022-03-14T02:19:00+09:00,1,��쐼,1.9,��쐼,12.6,95.7,0,3,9,9
2022-03-14T02:20:00+09:00,1,��쐼,1.8,��쐼,12.6,95.5,0,2.5,9,9
2022-03-14T02:21:00+09:00,1,��쐼,2,��쐼,12.6,95.2,0,2.5,9,9
2022-03-14T02:22:00+09:00,1,��쐼,2,��쐼,12.6,95.1,0,2.5,9,9
2022-03-14T02:23:00+09:00,1.1,��쐼,2,��쐼,12.5,95.2,0,2,9,9
2022-03-14T02:24:00+09:00,1.3,��쐼,2.4,��쐼,12.5,95.3,0,2,9,9
2022-03-14T02:25:00+09:00,1.3,��쐼,2.6,��쐼,12.4,95.4,0,2,9,9
2022-03-14T02:26:00+09:00,1.5,��쐼,3,��쐼,12.4,95.6,0,2,9,9
2022-03-14T02:27:00+09:00,1.7,��쐼,3,��쐼,12.4,95.7,0,1.5,9,9
2022-03-14T02:28:00+09:00,1.8,��쐼,3,��쐼,12.4,95.7,0,1.5,9,9
2022-03-14T02:29:00+09:00,1.9,��쐼,3,��쐼,12.4,95.8,0,1.5,9,9
2022-03-14T02:30:00+09:00,2,��쐼,3,��쐼,12.3,95.9,0,1.5,9,9
2022-03-14T02:31:00+09:00,2.1,��쐼,3,��쐼,12.3,96.1,0,1.5,9,9
2022-03-14T02:32:00+09:00,2.2,��쐼,3,��쐼,12.3,96.1,0,1.5,9,9
2022-03-14T02:33:00+09:00,2.3,��쐼,3,��쐼,12.2,96.3,0,1.5,9,9
2022-03-14T02:34:00+09:00,2.4,��쐼,3.7,��쐼,12.2,96.4,0,1.5,9,9
2022-03-14T02:35:00+09:00,2.4,��쐼,3.7,��쐼,12.2,96.4,0,1.5,9,9
2022-03-14T02:36:00+09:00,2.4,��쐼,3.7,��쐼,12.2,96.5,0,1.5,9,9
2022-03-14T02:37:00+09:00,2.5,��쐼,3.7,��쐼,12.2,96.6,0,1,9,9
2022-03-14T02:38:00+09:00,2.5,��쐼,3.7,��쐼,12.2,96.6,0,1,9,9
2022-03-14T02:39:00+09:00,2.5,��쐼,3.7,��쐼,12.2,96.7,0,1,9,9
2022-03-14T02:40:00+09:00,2.4,��쐼,3.7,��쐼,12.2,96.7,0,1,9,9
2022-03-14T02:41:00+09:00,2.3,��쐼,3.7,��쐼,12.2,96.8,0,1,9,9
2022-03-14T02:42:00+09:00,2.2,��쐼,3.7,��쐼,12.2,96.8,0,1,9,9
2022-03-14T02:43:00+09:00,2,��쐼,3.7,��쐼,12.3,96.8,0,0.5,9,9
2022-03-14T02:44:00+09:00,1.8,��쐼,3,��쐼,12.3,96.8,0,0.5,9,9
2022-03-14T02:45:00+09:00,1.6,��쐼,3,��쐼,12.3,96.7,0,0.5,9,9
2022-03-14T02:46:00+09:00,1.4,�쐼,3,��쐼,12.2,96.7,0,0.5,9,9
2022-03-14T02:47:00+09:00,1.2,�쐼,3,��쐼,12.3,96.9,0,0.5,9,9
2022-03-14T02:48:00+09:00,1,�쐼,3,��쐼,12.3,96.9,0,0.5,9,9
2022-03-14T02:49:00+09:00,0.9,�쐼,2,��쐼,12.3,96.7,0,0,9,9
2022-03-14T02:50:00+09:00,0.9,�쐼,1.7,���k��,12.3,96.7,0,0,9,9
2022-03-14T02:51:00+09:00,0.9,��,1.8,��,12.3,96.7,0,0,9,9
2022-03-14T02:52:00+09:00,1,���쓌,1.8,��,12.2,96.7,0,0,9,9
2022-03-14T02:53:00+09:00,1,��,2,��,12.2,96.8,0,0,9,9
2022-03-14T02:54:00+09:00,1.1,��,2,��,12.3,96.7,0,0,9,9
2022-03-14T02:55:00+09:00,1.2,��,2,��,12.3,96.8,0,0,9,9
2022-03-14T02:56:00+09:00,1.3,��,2,��,12.3,96.7,0,0,9,9
2022-03-14T02:57:00+09:00,1.3,��,2,��,12.3,96.7,0,0,9,9
2022-03-14T02:58:00+09:00,1.3,��,2,��,12.3,96.7,0,0,9,9
2022-03-14T02:59:00+09:00,1.1,��,2,��,12.4,96.7,0,0,9,9
2022-03-14T03:00:00+09:00,1,��,2,��,12.4,96.6,0,0,9,9
2022-03-14T03:01:00+09:00,0.9,��,2,��,12.3,96.4,0,0,9,9
2022-03-14T03:02:00+09:00,0.8,��,2,��,12.4,96.5,0,0,9,9
2022-03-14T03:03:00+09:00,0.7,��,1.7,���쓌,12.4,96.6,0,0,9,9
2022-03-14T03:04:00+09:00,0.6,���k��,1.7,���쓌,12.4,96.4,0,0,9,9
2022-03-14T03:05:00+09:00,0.5,�k��,1.6,���쓌,12.3,96.3,0,0,9,9
2022-03-14T03:06:00+09:00,0.4,�k��,1.2,��,12.3,96.3,0,0,9,9
2022-03-14T03:07:00+09:00,0.4,�k��,1.1,�k��,12.3,96.3,0,0,9,9
2022-03-14T03:08:00+09:00,0.5,�k��,1.7,���쓌,12.2,96.4,0,0,9,9
2022-03-14T03:09:00+09:00,0.6,���k��,1.7,���쓌,12.2,96.4,0,0,9,9
2022-03-14T03:10:00+09:00,0.7,���k��,1.7,���쓌,12.1,96.6,0,0,9,9
2022-03-14T03:11:00+09:00,0.7,���k��,1.7,���쓌,12.1,96.7,0,0,9,9
2022-03-14T03:12:00+09:00,0.8,��,1.7,���쓌,12.1,96.7,0,0,9,9
2022-03-14T03:13:00+09:00,0.9,���쓌,1.8,��쓌,12.1,96.7,0,0,9,9
2022-03-14T03:14:00+09:00,1.1,���쓌,2.3,��쓌,12.1,96.8,0,0,9,9
2022-03-14T03:15:00+09:00,1.3,�쓌,2.5,��쓌,12,96.9,0,0,9,9
2022-03-14T03:16:00+09:00,1.4,�쓌,2.5,��쓌,12,96.9,0,0,9,9
2022-03-14T03:17:00+09:00,1.6,�쓌,2.5,��쓌,12,97,0,0,9,9
2022-03-14T03:18:00+09:00,1.6,��쓌,2.5,��쓌,12,97,0,0,9,9
2022-03-14T03:19:00+09:00,1.7,��쓌,2.6,�쓌,12,97.1,0,0,9,9
2022-03-14T03:20:00+09:00,1.8,��쓌,2.6,�쓌,12,97.1,0,0,9,9
2022-03-14T03:21:00+09:00,1.8,��쓌,2.6,�쓌,12,97.1,0,0,9,9
2022-03-14T03:22:00+09:00,1.8,��쓌,2.6,�쓌,12,97.2,0,0,9,9
2022-03-14T03:23:00+09:00,1.8,��쓌,2.6,�쓌,12,97.2,0,0,9,9
2022-03-14T03:24:00+09:00,1.7,��쓌,2.6,�쓌,12,97.2,0,0,9,9
2022-03-14T03:25:00+09:00,1.6,��,2.6,�쓌,12,97.3,0,0,9,9
2022-03-14T03:26:00+09:00,1.5,��,2.6,�쓌,12,97.4,0,0,9,9
2022-03-14T03:27:00+09:00,1.4,��,2.6,�쓌,12.1,97.4,0,0,9,9
2022-03-14T03:28:00+09:00,1.3,��쐼,2.6,�쓌,12,97.3,0,0,9,9
2022-03-14T03:29:00+09:00,1.2,��쐼,2.1,��쓌,12,97.4,0,0,9,9
2022-03-14T03:30:00+09:00,1.1,�쐼,1.7,��쐼,12,97.4,0,0,9,9
2022-03-14T03:31:00+09:00,1,�쐼,1.7,��쐼,12,97.4,0,0,9,9
2022-03-14T03:32:00+09:00,1,�쐼,1.7,��쐼,12,97.5,0,0,9,9
2022-03-14T03:33:00+09:00,1,�쐼,1.7,��쐼,12,97.5,0,0,9,9
2022-03-14T03:34:00+09:00,0.9,���쐼,1.4,���쐼,12,97.5,0,0,9,9
2022-03-14T03:35:00+09:00,1,���쐼,1.4,���쐼,12,97.5,0,0,9,9
2022-03-14T03:36:00+09:00,1,���쐼,1.4,���쐼,12,97.5,0,0,9,9
2022-03-14T03:37:00+09:00,1,�쐼,1.4,���쐼,12,97.5,0,0,9,9
2022-03-14T03:38:00+09:00,1.1,�쐼,1.5,�쐼,12,97.5,0,0,9,9
2022-03-14T03:39:00+09:00,1.1,�쐼,1.5,�쐼,12,97.6,0,0,9,9
2022-03-14T03:40:00+09:00,1.1,�쐼,1.5,�쐼,12,97.6,0,0,9,9
2022-03-14T03:41:00+09:00,1.1,�쐼,1.5,�쐼,12,97.6,0,0,9,9
2022-03-14T03:42:00+09:00,1,�쐼,1.5,�쐼,12.1,97.6,0,0,9,9
2022-03-14T03:43:00+09:00,1,��쐼,1.5,�쐼,12.1,97.6,0,0,9,9
2022-03-14T03:44:00+09:00,1,��,1.5,�쐼,12.1,97.6,0,0,9,9
2022-03-14T03:45:00+09:00,1,��,1.5,�쐼,12.1,97.6,0,0,9,9
2022-03-14T03:46:00+09:00,1.1,��쓌,1.6,�쓌,12.1,97.5,0,0,9,9
2022-03-14T03:47:00+09:00,1.1,��쓌,1.8,�쓌,12,97.5,0,0,9,9
2022-03-14T03:48:00+09:00,1.1,�쓌,1.9,�쓌,12,97.5,0,0,9,9
2022-03-14T03:49:00+09:00,1.2,�쓌,1.9,�쓌,12,97.4,0,0,9,9
2022-03-14T03:50:00+09:00,1.2,�쓌,1.9,�쓌,11.9,97.5,0,0,9,9
2022-03-14T03:51:00+09:00,1.3,�쓌,1.9,�쓌,11.9,97.5,0,0,9,9
2022-03-14T03:52:00+09:00,1.3,�쓌,1.9,�쓌,11.9,97.5,0,0,9,9
2022-03-14T03:53:00+09:00,1.3,�쓌,1.9,�쓌,11.9,97.5,0,0,9,9
2022-03-14T03:54:00+09:00,1.3,��쓌,1.9,�쓌,11.9,97.5,0,0,9,9
2022-03-14T03:55:00+09:00,1.3,��쓌,1.9,�쓌,11.9,97.5,0,0,9,9
2022-03-14T03:56:00+09:00,1.3,��쓌,1.9,�쓌,11.9,97.6,0,0,9,9
2022-03-14T03:57:00+09:00,1.3,��쓌,2.1,��,11.9,97.6,0,0,9,9
2022-03-14T03:58:00+09:00,1.3,��쓌,2.5,��,11.9,97.6,0,0,9,9
2022-03-14T03:59:00+09:00,1.4,��,2.7,��,11.8,97.6,0,0,9,9
2022-03-14T04:00:00+09:00,1.5,��,2.7,��,11.8,97.6,0,0,9,9
2022-03-14T04:01:00+09:00,1.5,��,2.7,��,11.8,97.6,0,0,9,9
2022-03-14T04:02:00+09:00,1.6,��,2.7,��,11.8,97.6,0,0,9,9
2022-03-14T04:03:00+09:00,1.7,��,2.7,��,11.8,97.6,0,0,9,9
2022-03-14T04:04:00+09:00,1.8,��쐼,2.7,��,11.8,97.6,0,0,9,9
2022-03-14T04:05:00+09:00,1.9,��쐼,2.7,��,11.8,97.6,0,0,9,9
2022-03-14T04:06:00+09:00,2,��쐼,2.7,��,11.8,97.7,0,0,9,9
2022-03-14T04:07:00+09:00,2,��쐼,2.7,��,11.8,97.7,0,0,9,9
2022-03-14T04:08:00+09:00,1.9,��쐼,2.7,��,11.8,97.7,0,0,9,9
2022-03-14T04:09:00+09:00,1.8,��쐼,2.6,��,11.8,97.7,0,0,9,9
2022-03-14T04:10:00+09:00,1.7,��쐼,2.5,��쐼,11.8,97.7,0,0,9,9
2022-03-14T04:11:00+09:00,1.7,��,2.5,��쐼,11.7,97.7,0,0,9,9
2022-03-14T04:12:00+09:00,1.6,��,2.3,��쐼,11.8,97.8,0,0,9,9
2022-03-14T04:13:00+09:00,1.5,��,2.2,��쐼,11.8,97.8,0,0,9,9
2022-03-14T04:14:00+09:00,1.4,��,2.1,��,11.8,97.8,0,0,9,9
2022-03-14T04:15:00+09:00,1.4,��,2,��,11.8,97.8,0,0,9,9
2022-03-14T04:16:00+09:00,1.4,��,2,��쐼,11.7,97.8,0,0,9,9
2022-03-14T04:17:00+09:00,1.4,��,2,��쐼,11.7,97.8,0,0,9,9
2022-03-14T04:18:00+09:00,1.4,��,2,��쐼,11.7,97.8,0,0,9,9
2022-03-14T04:19:00+09:00,1.4,��쐼,2,��쐼,11.7,97.8,0,0,9,9
2022-03-14T04:20:00+09:00,1.4,��쐼,2,��쐼,11.7,97.8,0,0,9,9
2022-03-14T04:21:00+09:00,1.4,��쐼,2,��쐼,11.7,97.8,0,0,9,9
2022-03-14T04:22:00+09:00,1.4,��쐼,2,��쐼,11.7,97.8,0,0,9,9
2022-03-14T04:23:00+09:00,1.4,��쐼,2,��쐼,11.7,97.8,0,0,9,9
2022-03-14T04:24:00+09:00,1.3,�쐼,2,��쐼,11.7,97.8,0,0,9,9
2022-03-14T04:25:00+09:00,1.2,�쐼,2,��쐼,11.8,97.9,0,0,9,9
2022-03-14T04:26:00+09:00,1.1,�쐼,1.9,��쐼,11.8,97.9,0,0,9,9
2022-03-14T04:27:00+09:00,1,���쐼,1.8,�쐼,11.8,97.9,0,0,9,9
2022-03-14T04:28:00+09:00,1,���쐼,1.8,�쐼,11.8,97.9,0,0,9,9
2022-03-14T04:29:00+09:00,0.9,��,1.7,�쐼,11.7,97.9,0,0,9,9
2022-03-14T04:30:00+09:00,0.8,��,1.3,�쐼,11.7,97.8,0,0,9,9
2022-03-14T04:31:00+09:00,0.8,���k��,1.2,�k�k��,11.7,97.9,0,0,9,9
2022-03-14T04:32:00+09:00,0.9,���k��,1.6,�k�k��,11.7,97.9,0,0,9,9
2022-03-14T04:33:00+09:00,0.9,�k��,1.6,�k�k��,11.7,97.9,0,0,9,9
2022-03-14T04:34:00+09:00,1,�k��,1.6,�k�k��,11.8,97.9,0,0,9,9
2022-03-14T04:35:00+09:00,1,�k�k��,1.6,�k�k��,11.7,97.9,0,0,9,9
2022-03-14T04:36:00+09:00,1,�k�k��,1.6,�k�k��,11.8,97.9,0,0,9,9
2022-03-14T04:37:00+09:00,1,�k�k��,1.6,�k�k��,11.8,98,0,0,9,9
2022-03-14T04:38:00+09:00,1,�k,1.6,�k�k��,11.9,98,0,0,9,9
2022-03-14T04:39:00+09:00,1.1,�k,1.6,�k�k��,11.9,97.9,0,0,9,9
2022-03-14T04:40:00+09:00,1.1,�k,1.6,�k�k��,11.9,97.9,0,0,9,9
2022-03-14T04:41:00+09:00,1,�k,1.6,�k�k��,11.9,97.9,0,0,9,9
2022-03-14T04:42:00+09:00,1,�k,1.5,�k�k��,11.9,97.9,0,0,9,9
2022-03-14T04:43:00+09:00,1,�k,1.5,�k�k��,11.9,97.9,0,0,9,9
2022-03-14T04:44:00+09:00,1,�k�k��,1.8,�k��,11.9,97.8,0,0,9,9
2022-03-14T04:45:00+09:00,1.1,�k�k��,1.9,�k��,11.9,97.8,0,0,9,9
2022-03-14T04:46:00+09:00,1.1,�k�k��,1.9,�k��,11.8,97.8,0,0,9,9
2022-03-14T04:47:00+09:00,1.1,�k��,1.9,�k��,11.8,97.8,0,0,9,9
2022-03-14T04:48:00+09:00,1.1,�k��,1.9,�k��,11.8,97.7,0,0,9,9
2022-03-14T04:49:00+09:00,1,�k��,1.9,�k��,11.7,97.8,0,0,9,9
2022-03-14T04:50:00+09:00,0.9,���k��,1.9,�k��,11.8,97.8,0,0,9,9
2022-03-14T04:51:00+09:00,0.9,��,1.9,�k��,11.7,97.8,0,0,9,9
2022-03-14T04:52:00+09:00,0.9,��,1.9,�k��,11.7,97.8,0,0,9,9
2022-03-14T04:53:00+09:00,0.8,���쓌,1.9,�k��,11.7,97.8,0,0,9,9
2022-03-14T04:54:00+09:00,0.7,�쓌,1.9,�k��,11.7,97.8,0,0,9,9
2022-03-14T04:55:00+09:00,0.6,��쓌,1.4,�k��,11.7,97.8,0,0,9,9
2022-03-14T04:56:00+09:00,0.5,��쓌,1.1,��,11.7,97.8,0,0,9,9
2022-03-14T04:57:00+09:00,0.4,��쓌,1,��,11.7,97.8,0,0,9,9
2022-03-14T04:58:00+09:00,0.4,��,1,��,11.7,97.8,0,0,9,9
2022-03-14T04:59:00+09:00,0.4,��,1,��,11.7,97.8,0,0,9,9
2022-03-14T05:00:00+09:00,0.3,��,1,��,11.7,97.9,0,0,9,9
2022-03-14T05:01:00+09:00,0.3,��쐼,1,��,11.8,97.9,0,0,9,9
2022-03-14T05:02:00+09:00,0.2,�É�,1,��,11.7,97.8,0,0,9,9
2022-03-14T05:03:00+09:00,0.1,�É�,0.8,��쐼,11.7,97.8,0,0,9,9
2022-03-14T05:04:00+09:00,0.1,�É�,0.7,��쐼,11.7,97.8,0,0,9,9
2022-03-14T05:05:00+09:00,0.1,�É�,0.7,��쐼,11.7,97.8,0,0,9,9
2022-03-14T05:06:00+09:00,0.2,�É�,0.7,��쐼,11.7,97.8,0,0,9,9
2022-03-14T05:07:00+09:00,0.2,�É�,0.7,��쐼,11.7,97.8,0,0,9,9
2022-03-14T05:08:00+09:00,0.2,�É�,0.7,��쐼,11.6,97.8,0,0,9,9
2022-03-14T05:09:00+09:00,0.2,�É�,0.7,��쐼,11.6,97.8,0,0,9,9
2022-03-14T05:10:00+09:00,0.2,�É�,0.7,��쐼,11.6,97.8,0,0,9,9
2022-03-14T05:11:00+09:00,0.2,�É�,0.7,��쐼,11.6,97.8,0,0,9,9
2022-03-14T05:12:00+09:00,0.2,�É�,0.7,��쐼,11.6,97.8,0,0,9,9
2022-03-14T05:13:00+09:00,0.3,��,0.7,��쐼,11.6,97.8,0,0,9,9
2022-03-14T05:14:00+09:00,0.3,��,0.9,��,11.6,97.8,0,0,9,9
2022-03-14T05:15:00+09:00,0.4,��,1.3,��,11.6,97.8,0,0,9,9
2022-03-14T05:16:00+09:00,0.5,��,1.4,��,11.6,97.8,0,0,9,9
2022-03-14T05:17:00+09:00,0.6,��,1.5,��,11.6,97.8,0,0,9,9
2022-03-14T05:18:00+09:00,0.7,��,1.5,��,11.6,97.9,0,0,9,9
2022-03-14T05:19:00+09:00,0.8,��,1.5,��,11.6,97.9,0,0,9,9
2022-03-14T05:20:00+09:00,0.9,��,1.5,��,11.6,97.9,0,0,9,9
2022-03-14T05:21:00+09:00,1,��,1.5,��,11.6,97.9,0,0,9,9
2022-03-14T05:22:00+09:00,1,��,1.5,��,11.6,97.9,0,0,9,9
2022-03-14T05:23:00+09:00,1.1,��,1.5,��,11.6,97.9,0,0,9,9
2022-03-14T05:24:00+09:00,1,��,1.5,��,11.5,97.9,0,0,9,9
2022-03-14T05:25:00+09:00,1,��쐼,1.5,��,11.5,97.9,0,0,9,9
2022-03-14T05:26:00+09:00,0.9,��쐼,1.5,��,11.6,97.9,0,0,9,9
2022-03-14T05:27:00+09:00,0.8,��쐼,1.5,��,11.5,97.9,0,0,9,9
2022-03-14T05:28:00+09:00,0.7,��쐼,1.3,��,11.5,97.9,0,0,9,9
2022-03-14T05:29:00+09:00,0.7,��쐼,1.2,��,11.5,97.9,0,0,9,9
2022-03-14T05:30:00+09:00,0.7,�쐼,1.2,��,11.5,97.9,0,0,9,9
2022-03-14T05:31:00+09:00,0.7,�쐼,1.1,��쐼,11.5,97.9,0,0,9,9
2022-03-14T05:32:00+09:00,0.7,�쐼,1.1,��쐼,11.5,98,0,0,9,9
2022-03-14T05:33:00+09:00,0.7,�쐼,1.1,��쐼,11.5,98,0,0,9,9
2022-03-14T05:34:00+09:00,0.7,�쐼,1.1,��쐼,11.5,98,0,0,9,9
2022-03-14T05:35:00+09:00,0.7,�쐼,1.1,��쐼,11.5,98,0,0,9,9
2022-03-14T05:36:00+09:00,0.6,�쐼,1.1,��쐼,11.5,97.9,0,0,9,9
2022-03-14T05:37:00+09:00,0.6,���쐼,1.1,��쐼,11.5,97.9,0,0,9,9
2022-03-14T05:38:00+09:00,0.7,���쐼,1.2,�k�k��,11.4,97.9,0,0,9,9
2022-03-14T05:39:00+09:00,0.7,���쐼,1.3,�k�k��,11.4,97.9,0,0,9,9
2022-03-14T05:40:00+09:00,0.7,���k��,1.3,�k�k��,11.4,98,0,0,9,9
2022-03-14T05:41:00+09:00,0.7,�k��,1.3,�k�k��,11.5,98,0,0,9,9
2022-03-14T05:42:00+09:00,0.7,�k�k��,1.3,�k�k��,11.5,98,0,0,9,9
2022-03-14T05:43:00+09:00,0.7,�k,1.3,�k�k��,11.5,98,0,0,9,9
2022-03-14T05:44:00+09:00,0.7,�k,1.3,�k�k��,11.5,98,0,0,9,9
2022-03-14T05:45:00+09:00,0.8,�k,1.3,�k�k��,11.5,98,0,0,9,9
2022-03-14T05:46:00+09:00,0.9,�k,1.5,�k�k��,11.4,97.9,0,0,9,9
2022-03-14T05:47:00+09:00,1,�k,1.9,�k�k��,11.3,97.8,0,0,9,9
2022-03-14T05:48:00+09:00,1.1,�k,2.2,�k�k��,11.2,97.8,0,0,9,9
2022-03-14T05:49:00+09:00,1.2,�k,2.5,�k�k��,11.1,97.8,0,0,9,9
2022-03-14T05:50:00+09:00,1.3,�k,2.5,�k�k��,11.1,97.8,0,0,9,9
2022-03-14T05:51:00+09:00,1.5,�k,2.5,�k�k��,11.1,97.9,0,0,9,9
2022-03-14T05:52:00+09:00,1.6,�k�k��,2.9,�k�k��,11.1,97.9,0,0,9,9
2022-03-14T05:53:00+09:00,1.8,�k�k��,3,�k�k��,11,97.9,0,0,9,9
2022-03-14T05:54:00+09:00,2,�k�k��,3.1,�k�k��,11,98,0,0,9,9
2022-03-14T05:55:00+09:00,2.2,�k�k��,3.1,�k�k��,11.1,98,0,0,9,9
2022-03-14T05:56:00+09:00,2.3,�k�k��,3.6,�k�k��,11,98,0,0,9,9
2022-03-14T05:57:00+09:00,2.5,�k�k��,3.6,�k�k��,11.1,98,0,0,9,9
2022-03-14T05:58:00+09:00,2.6,�k�k��,3.6,�k�k��,11.1,98,0,0,9,9
2022-03-14T05:59:00+09:00,2.6,�k�k��,3.6,�k�k��,11.1,98,0,0,9,9
2022-03-14T06:00:00+09:00,2.7,�k�k��,3.6,�k�k��,11.1,98,0,0,9,9
2022-03-14T06:01:00+09:00,2.8,�k�k��,3.6,�k�k��,11.2,98.1,0,0,9,9
2022-03-14T06:02:00+09:00,2.8,�k�k��,3.6,�k�k��,11.1,98.1,0,0,9,9
2022-03-14T06:03:00+09:00,2.8,�k�k��,3.6,�k�k��,11.2,98.1,0,0,9,9
2022-03-14T06:04:00+09:00,2.8,�k�k��,3.6,�k�k��,11.2,98.1,0,0,9,9
2022-03-14T06:05:00+09:00,2.7,�k�k��,3.6,�k�k��,11.2,98.1,0,0,9,9
2022-03-14T06:06:00+09:00,2.6,�k�k��,3.5,�k��,11.2,98.1,0,0,9,9
2022-03-14T06:07:00+09:00,2.6,�k�k��,3.5,�k��,11.2,98.1,0,0,9,9
2022-03-14T06:08:00+09:00,2.5,�k�k��,3.5,�k��,11.1,98.1,0,0,9,9
2022-03-14T06:09:00+09:00,2.5,�k��,3.5,�k��,11.1,98.1,0,0,9,9
2022-03-14T06:10:00+09:00,2.3,�k��,3.5,�k��,11.1,98.1,0,0,9,9
2022-03-14T06:11:00+09:00,2.1,�k��,3.5,�k��,11.1,98.1,0,0,9,9
2022-03-14T06:12:00+09:00,1.8,�k�k��,3.2,�k�k��,11.1,98.1,0,0,9,9
2022-03-14T06:13:00+09:00,1.6,�k�k��,2.9,�k��,11.1,98.1,0,0,9,9
2022-03-14T06:14:00+09:00,1.5,�k�k��,2.9,�k��,11.1,98.1,0,0,9,9
2022-03-14T06:15:00+09:00,1.4,�k,2.9,�k��,11.1,98.1,0,0,9,9
2022-03-14T06:16:00+09:00,1.3,�k,2.9,�k��,11,98,0,0,9,9
2022-03-14T06:17:00+09:00,1.2,�k�k��,2.8,�k��,11,98,0,0,9,9
2022-03-14T06:18:00+09:00,1.1,�k��,2.8,�k��,10.9,98,0,0,9,9
2022-03-14T06:19:00+09:00,1,���k��,2.8,�k��,11,98.1,0,0,9,9
2022-03-14T06:20:00+09:00,1,���k��,2.5,���k��,10.9,98.1,0,0,9,9
2022-03-14T06:21:00+09:00,1.1,���k��,2.5,���k��,10.9,98.1,0,0,9,9
2022-03-14T06:22:00+09:00,1.3,��,2.5,���k��,10.9,98.1,0,0,9,9
2022-03-14T06:23:00+09:00,1.4,���k��,2.5,���k��,10.9,98.1,0,0,9,9
2022-03-14T06:24:00+09:00,1.5,��,2.5,���k��,10.9,98.1,0,0,9,9
2022-03-14T06:25:00+09:00,1.5,���k��,2.5,���k��,11,98.1,0,0,9,9
2022-03-14T06:26:00+09:00,1.5,���k��,2.5,���k��,10.9,98.2,0,0,9,9
2022-03-14T06:27:00+09:00,1.5,���k��,2.5,���k��,10.9,98.2,0,0,9,9
2022-03-14T06:28:00+09:00,1.5,���k��,2.5,���k��,11,98.2,0,0,9,9
2022-03-14T06:29:00+09:00,1.5,���k��,2.5,���k��,11,98.2,0,0,9,9
2022-03-14T06:30:00+09:00,1.5,���k��,2.4,��,11,98.1,0,0,9,9
2022-03-14T06:31:00+09:00,1.4,���k��,2.4,��,10.9,98.1,0,0,9,9
2022-03-14T06:32:00+09:00,1.3,���k��,2.1,���k��,10.9,98.1,0,0,9,9
2022-03-14T06:33:00+09:00,1.3,�k��,1.8,�k��,10.9,98.1,0,0,9,9